FW6272 Weather Reports


time (UTC)temp
F
wind
direction
speed
knots
gust
knots
rain 1hr
in
rain 24hr
in
rain mn
in
humidity
%
barometer
mb
20260510204204 77 115 0.0 4.3 0.00 0.11 0.00 59 1011.9
20260510203703 78 147 0.0 1.7 0.00 0.11 0.00 58 1011.9
20260510203203 78 135 0.9 4.3 0.00 0.11 0.00 55 1011.9
20260510202703 78 177 0.9 4.3 0.00 0.11 0.00 57 1012.2
20260510202203 78 152 0.0 4.3 0.00 0.11 0.00 56 1012.2
20260510201703 78 203 1.7 8.7 0.00 0.11 0.00 55 1012.2
20260510201203 78 192 0.0 6.1 0.00 0.11 0.00 55 1012.2
20260510200703 79 193 0.0 4.3 0.00 0.11 0.00 60 1012.0
20260510200204 79 71 0.9 1.7 0.00 0.11 0.00 60 1012.2
20260510195703 79 36 0.9 1.7 0.00 0.11 0.00 54 1012.2
20260510194704 78 169 0.0 1.7 0.00 0.11 0.00 50 1012.2
20260510194203 78 166 0.0 4.3 0.00 0.11 0.00 53 1012.5
20260510193703 78 193 0.9 1.7 0.00 0.11 0.00 54 1012.5
20260510192703 78 193 2.6 8.7 0.00 0.11 0.00 56 1012.2
20260510192203 78 222 2.6 8.7 0.00 0.11 0.00 56 1012.5
20260510191704 79 197 4.3 11.3 0.00 0.11 0.00 55 1012.7
20260510191204 79 49 1.7 6.1 0.00 0.11 0.00 54 1012.5
20260510190703 79 168 0.9 6.1 0.00 0.11 0.00 53 1012.9
20260510190203 79 204 2.6 6.1 0.00 0.11 0.00 52 1012.5
20260510185704 79 140 0.0 1.7 0.00 0.11 0.00 58 1012.5
20260510185203 79 175 1.7 6.1 0.00 0.11 0.00 55 1012.9
20260510184703 79 175 0.9 4.3 0.00 0.11 0.00 53 1012.8
20260510184203 78 174 1.7 6.1 0.00 0.11 0.00 54 1012.5
20260510183203 78 152 1.7 6.1 0.00 0.11 0.00 56 1012.5
20260510182203 78 213 2.6 6.1 0.00 0.11 0.00 57 1012.5
20260510181703 78 199 2.6 8.7 0.00 0.11 0.00 59 1012.6
20260510181203 78 139 0.0 6.1 0.00 0.11 0.00 63 1012.9
20260510180703 78 142 0.0 1.7 0.00 0.11 0.00 61 1012.8
20260510180203 78 182 0.9 4.3 0.00 0.11 0.00 59 1012.9
20260510175704 78 177 0.9 4.3 0.00 0.11 0.00 58 1012.7
20260510175204 77 180 1.7 8.7 0.00 0.11 0.00 58 1012.9
20260510174703 77 197 2.6 8.7 0.00 0.11 0.00 61 1012.9
20260510174204 77 209 2.6 6.1 0.00 0.12 0.00 62 1012.7
20260510173703 76 201 0.9 4.3 0.00 0.12 0.00 62 1012.9
20260510173203 76 229 0.9 4.3 0.00 0.12 0.00 62 1012.9
20260510172703 75 210 2.6 6.1 0.00 0.12 0.00 63 1012.9
20260510172204 75 190 1.7 6.1 0.00 0.12 0.00 62 1012.9
20260510171703 75 200 2.6 8.7 0.00 0.12 0.00 64 1012.9
20260510170703 75 171 1.7 6.1 0.00 0.12 0.00 64 1012.7
20260510170203 75 196 0.9 6.1 0.00 0.12 0.00 64 1012.6
20260510165703 75 15 0.9 6.1 0.00 0.12 0.00 63 1012.9
20260510165204 74 169 4.3 6.1 0.00 0.12 0.00 64 1012.9
20260510164704 74 95 0.0 6.1 0.00 0.12 0.00 63 1012.9
20260510163704 73 235 0.9 4.3 0.00 0.12 0.00 66 1012.9
20260510163204 72 238 0.9 1.7 0.00 0.12 0.00 65 1012.9
20260510162203 71 173 0.9 4.3 0.00 0.12 0.00 68 1012.5
20260510161703 71 204 1.7 4.3 0.00 0.12 0.00 72 1012.9
20260510161203 71 144 0.9 4.3 0.00 0.12 0.00 74 1012.9
20260510160703 70 168 1.7 4.3 0.00 0.12 0.00 74 1012.9
20260510160203 70 161 0.9 4.3 0.00 0.12 0.00 74 1012.9
20260510155203 68 175 0.9 4.3 0.00 0.12 0.00 76 1012.9
20260510154703 68 187 0.9 4.3 0.00 0.12 0.00 78 1013.1
20260510154203 66 204 0.9 4.3 0.00 0.12 0.00 78 1013.2
20260510153703 65 170 0.9 4.3 0.00 0.12 0.00 79 1013.2
20260510153204 64 217 0.9 4.3 0.00 0.12 0.00 80 1013.2
20260510152203 62 115 0.9 1.7 0.00 0.12 0.00 86 1013.2
20260510151703 61 143 0.0 1.7 0.00 0.12 0.00 93 1013.2
20260510151203 60 195 0.9 4.3 0.00 0.12 0.00 94 1013.2
20260510150703 59 161 0.0 4.3 0.00 0.12 0.00 98 1013.2
20260510150203 59 158 0.0 4.3 0.00 0.12 0.00 98 1013.2
20260510145703 58 155 0.0 0.0 0.00 0.12 0.00 99 1013.2
20260510145203 58 155 0.0 0.0 0.00 0.12 0.00 99 1013.2
20260510144704 58 160 0.9 1.7 0.00 0.12 0.00 99 1013.2
20260510144203 57 152 0.9 1.7 0.00 0.12 0.00 99 1013.0
20260510143703 57 198 0.0 1.7 0.00 0.12 0.00 99 1013.2
20260510142703 57 130 0.0 1.7 0.00 0.12 0.00 99 1013.2
20260510142203 57 202 0.0 4.3 0.00 0.12 0.00 99 1013.2
20260510141703 56 199 0.0 1.7 0.00 0.12 0.00 99 1013.2
20260510141204 56 342 0.9 1.7 0.00 0.12 0.00 99 1013.4
20260510140703 56 161 0.0 1.7 0.00 0.12 0.00 99 1013.5
20260510135703 56 142 0.0 0.0 0.00 0.12 0.00 99 1013.2
20260510135204 56 209 0.0 0.0 0.00 0.12 0.00 99 1013.2
20260510134704 55 127 0.0 0.0 0.00 0.12 0.00 99 1012.9
20260510134204 55 162 0.0 0.0 0.00 0.12 0.00 99 1013.1
20260510133703 55 173 0.0 0.0 0.00 0.12 0.00 99 1013.3
20260510133204 55 168 0.0 0.0 0.00 0.12 0.00 99 1013.2
20260510132703 55 171 0.0 0.0 0.00 0.12 0.00 99 1013.2
20260510132203 54 163 0.0 0.0 0.00 0.12 0.00 99 1013.2
20260510131707 54 179 0.0 0.0 0.00 0.12 0.00 99 1012.9
20260510131205 54 179 0.0 1.7 0.00 0.12 0.00 99 1012.9
20260510130706 54 156 0.0 1.7 0.00 0.12 0.00 99 1013.2
20260510130204 54 190 0.9 1.7 0.00 0.12 0.00 99 1012.9
20260510125205 54 217 0.0 0.0 0.00 0.12 0.00 99 1012.9
20260510124703 54 174 0.0 0.0 0.00 0.12 0.00 99 1012.5
20260510124203 53 184 0.0 0.0 0.00 0.12 0.00 99 1012.5
20260510122705 53 162 0.0 0.0 0.00 0.12 0.00 99 1012.2
20260510122204 53 175 0.0 0.0 0.00 0.12 0.00 99 1012.8
20260510121204 52 136 0.0 0.0 0.00 0.12 0.00 99 1012.5
20260510120704 52 136 0.0 0.0 0.00 0.12 0.00 99 1012.5
20260510120203 52 136 0.0 0.0 0.00 0.12 0.00 99 1012.5
20260510115704 52 173 0.0 0.0 0.00 0.12 0.00 99 1012.5
20260510115203 52 145 0.0 0.0 0.00 0.12 0.00 99 1012.5
20260510114204 52 118 0.0 1.7 0.00 0.12 0.00 99 1012.5
20260510113703 51 88 0.0 0.0 0.00 0.12 0.00 99 1012.2
20260510113204 51 102 0.0 1.7 0.00 0.12 0.00 99 1012.2
20260510112704 51 67 0.0 1.7 0.00 0.12 0.00 99 1012.2
20260510112203 51 41 0.0 1.7 0.00 0.12 0.00 99 1011.9
20260510111703 51 153 0.0 0.0 0.00 0.12 0.00 99 1012.2
20260510111204 51 132 0.0 0.0 0.00 0.12 0.00 99 1012.1
20260510110703 51 164 0.0 0.0 0.00 0.12 0.00 99 1012.2
20260510110203 51 142 0.0 0.0 0.00 0.12 0.00 99 1011.9
20260510105703 51 159 0.0 0.0 0.00 0.12 0.00 99 1012.0
20260510105204 51 61 0.9 4.3 0.00 0.12 0.00 99 1011.9
20260510104703 50 182 0.0 1.7 0.00 0.12 0.00 99 1011.9
20260510104203 50 0 0.0 0.0 0.00 0.12 0.00 99 1011.7
20260510103703 50 313 0.0 1.7 0.00 0.12 0.00 99 1011.5
20260510103204 50 139 0.0 0.0 0.00 0.12 0.00 99 1011.9
20260510102703 50 150 0.0 0.0 0.00 0.12 0.00 99 1011.7
20260510102204 50 151 0.0 0.0 0.00 0.12 0.00 99 1011.9
20260510101704 50 173 0.0 0.0 0.00 0.12 0.00 99 1011.9
20260510101204 50 113 0.0 0.0 0.00 0.12 0.00 99 1011.9
20260510100704 49 151 0.0 0.0 0.00 0.12 0.00 99 1011.9
20260510100203 49 152 0.0 0.0 0.00 0.12 0.00 99 1011.9
20260510095704 49 141 0.0 0.0 0.00 0.12 0.00 99 1011.7
20260510095203 49 151 0.0 0.0 0.00 0.12 0.00 99 1011.6
20260510094704 49 138 0.0 0.0 0.00 0.12 0.00 99 1011.5
20260510094204 49 114 0.0 0.0 0.00 0.12 0.00 99 1011.6
20260510093704 49 353 0.0 4.3 0.00 0.12 0.00 99 1011.5
20260510093203 49 110 0.0 1.7 0.00 0.12 0.00 99 1011.9
20260510092704 49 134 0.0 1.7 0.00 0.12 0.00 99 1011.5
20260510092203 48 50 0.0 4.3 0.00 0.12 0.00 99 1011.5
20260510091204 48 95 0.9 4.3 0.00 0.12 0.00 99 1011.4
20260510090704 48 148 0.0 8.7 0.00 0.12 0.00 99 1011.2
20260510090204 48 129 0.0 1.7 0.00 0.12 0.00 99 1011.5
20260510085203 48 130 0.0 0.0 0.00 0.12 0.00 99 1010.8
20260510084704 48 103 0.9 1.7 0.00 0.12 0.00 99 1010.8
20260510084203 47 135 0.0 0.0 0.00 0.12 0.00 99 1011.2
20260510083703 47 140 0.0 0.0 0.00 0.12 0.00 99 1011.2
20260510082204 47 123 0.0 0.0 0.00 0.12 0.00 99 1010.8
20260510081704 47 128 0.0 0.0 0.00 0.12 0.00 99 1010.9
20260510080704 47 135 0.0 0.0 0.00 0.12 0.00 99 1010.8
20260510080203 47 117 0.0 0.0 0.00 0.12 0.00 99 1011.2
20260510075204 47 107 0.0 1.7 0.00 0.12 0.00 99 1011.1
20260510074703 47 345 0.9 1.7 0.00 0.12 0.00 99 1010.8
20260510074204 47 82 0.9 1.7 0.00 0.12 0.00 99 1010.8
20260510073704 47 119 0.0 0.0 0.00 0.12 0.00 99 1010.8
20260510073204 47 137 0.0 0.0 0.00 0.12 0.00 99 1010.8
20260510072704 47 72 0.0 0.0 0.00 0.12 0.00 99 1010.8
20260510072203 47 72 0.0 0.0 0.00 0.12 0.00 99 1010.8
20260510071703 47 97 0.0 6.1 0.00 0.12 0.00 99 1010.8
20260510071203 47 38 0.9 4.3 0.00 0.12 0.00 99 1010.6
20260510070704 47 121 0.0 0.0 0.00 0.12 0.00 99 1010.5
20260510070203 47 127 0.0 0.0 0.00 0.12 0.00 99 1010.3
20260510065204 47 127 0.0 0.0 0.00 0.12 0.00 99 1010.2
20260510064703 47 126 0.0 0.0 0.00 0.12 0.00 99 1010.2
20260510064204 47 126 0.0 0.0 0.00 0.12 0.00 99 1010.2
20260510063703 47 126 0.0 0.0 0.00 0.12 0.00 99 1010.2
20260510063204 47 126 0.0 0.0 0.00 0.12 0.00 99 1010.2
20260510062703 47 126 0.0 0.0 0.00 0.12 0.00 99 1010.5
20260510061704 47 125 0.0 0.0 0.00 0.12 0.00 99 1010.2
20260510061203 47 125 0.0 0.0 0.00 0.12 0.00 99 1010.7
20260510060702 47 125 0.0 0.0 0.00 0.12 0.00 99 1010.5
20260510060202 47 125 0.0 0.0 0.00 0.12 0.00 99 1010.5
20260510055702 47 108 0.0 0.0 0.00 0.12 0.00 99 1010.5
20260510055202 47 127 0.0 0.0 0.00 0.12 0.00 99 1010.8
20260510054702 47 127 0.0 0.0 0.00 0.12 0.00 99 1010.8
20260510054202 47 127 0.0 0.0 0.00 0.12 0.00 99 1010.8
20260510053702 48 128 0.0 0.0 0.00 0.12 0.00 99 1011.1
20260510053202 48 127 0.0 0.0 0.00 0.12 0.00 99 1010.8
20260510052702 48 121 0.0 0.0 0.00 0.12 0.00 99 1010.8
20260510051702 48 129 0.0 0.0 0.00 0.12 0.00 99 1010.8
20260510051202 48 129 0.0 0.0 0.00 0.12 0.00 99 1010.8
20260510050703 48 128 0.0 0.0 0.00 0.12 0.00 99 1010.8
20260510050202 48 129 0.0 0.0 0.00 0.12 0.00 99 1011.1
20260510045703 48 129 0.0 0.0 0.00 0.12 0.00 99 1010.8
20260510045203 49 129 0.0 0.0 0.00 0.12 0.00 99 1010.8
20260510044202 49 129 0.0 0.0 0.00 0.12 0.00 99 1011.2
20260510043702 49 129 0.0 0.0 0.00 0.12 0.00 99 1011.2
20260510043202 49 129 0.0 0.0 0.00 0.12 0.00 99 1011.2
20260510042702 49 129 0.0 0.0 0.00 0.12 0.00 99 1011.2
20260510041703 49 129 0.0 0.0 0.00 0.12 0.00 99 1011.4
20260510041202 49 129 0.0 0.0 0.00 0.12 0.00 99 1011.2
20260510040703 49 129 0.0 0.0 0.00 0.12 0.00 99 1011.3
20260510035702 49 129 0.0 0.0 0.00 0.12 0.12 99 1011.2
20260510035202 49 129 0.0 0.0 0.00 0.12 0.12 99 1011.2
20260510034702 49 129 0.0 0.0 0.00 0.12 0.12 99 1011.2
20260510034202 49 129 0.0 0.0 0.00 0.12 0.12 99 1011.2
20260510033702 50 129 0.0 0.0 0.00 0.12 0.12 99 1010.8
20260510033202 50 129 0.0 0.0 0.00 0.12 0.12 99 1011.2
20260510032703 50 129 0.0 0.0 0.00 0.12 0.12 99 1010.8
20260510032202 50 129 0.0 0.0 0.00 0.12 0.12 99 1010.8
20260510031702 50 129 0.0 0.0 0.00 0.12 0.12 99 1010.8
20260510031202 50 129 0.0 0.0 0.00 0.12 0.12 99 1011.1
20260510030703 50 129 0.0 0.0 0.00 0.12 0.12 99 1010.8
20260510030203 50 129 0.0 0.0 0.00 0.12 0.12 99 1010.8
20260510025202 51 130 0.0 0.0 0.00 0.12 0.12 99 1010.8
20260510024702 51 130 0.0 0.0 0.00 0.12 0.12 99 1010.8
20260510024202 51 129 0.0 0.0 0.00 0.12 0.12 99 1010.8
20260510023703 51 130 0.0 0.0 0.00 0.12 0.12 99 1010.8
20260510023202 51 130 0.0 0.0 0.00 0.12 0.12 99 1010.8
20260510022203 51 130 0.0 0.0 0.00 0.12 0.12 99 1011.1
20260510020702 51 130 0.0 0.0 0.00 0.12 0.12 99 1010.8
20260510015702 51 130 0.0 0.0 0.00 0.12 0.12 99 1010.8
20260510015202 51 129 0.0 0.0 0.00 0.12 0.12 99 1010.8
20260510014703 51 131 0.0 0.0 0.00 0.12 0.12 99 1010.8
20260510013702 52 131 0.0 0.0 0.00 0.12 0.12 99 1010.8
20260510013203 52 131 0.0 0.0 0.00 0.12 0.12 99 1010.8
20260510012703 52 131 0.0 0.0 0.00 0.12 0.12 99 1010.8
20260510012202 52 132 0.0 0.0 0.00 0.12 0.12 99 1010.8
20260510011702 52 132 0.0 0.0 0.00 0.12 0.12 99 1010.8
20260510011202 52 132 0.0 0.0 0.00 0.12 0.12 99 1010.8
20260510010702 53 131 0.0 0.0 0.00 0.12 0.12 99 1010.7
20260510005702 53 131 0.0 0.0 0.00 0.12 0.12 99 1010.5
20260510005203 53 131 0.0 0.0 0.00 0.12 0.12 99 1010.5
20260510004702 53 131 0.0 0.0 0.00 0.12 0.12 99 1010.8
20260510004202 53 131 0.0 0.0 0.00 0.12 0.12 99 1010.5
20260510003702 53 131 0.0 0.0 0.00 0.12 0.12 99 1010.5
20260510003202 54 131 0.0 0.0 0.00 0.12 0.12 99 1010.2
20260510002703 54 131 0.0 0.0 0.00 0.12 0.12 99 1010.5
20260510002202 54 131 0.0 0.0 0.00 0.12 0.12 99 1010.7
20260510001702 55 131 0.0 0.0 0.00 0.12 0.12 98 1010.5
20260510001203 55 131 0.0 0.0 0.00 0.12 0.12 98 1010.5
20260510000702 55 131 0.0 0.0 0.00 0.12 0.12 98 1010.5
20260510000204 55 131 0.0 0.0 0.00 0.12 0.12 98 1010.4
20260509235703 55 132 0.0 0.0 0.00 0.12 0.12 98 1010.5
20260509235202 55 131 0.0 0.0 0.00 0.12 0.12 98 1010.5
20260509234703 55 131 0.0 0.0 0.00 0.12 0.12 98 1010.3
20260509234202 55 128 0.0 0.0 0.00 0.12 0.12 98 1010.5
20260509233702 56 135 0.0 0.0 0.00 0.12 0.12 98 1010.2
20260509233202 56 122 0.0 0.0 0.00 0.12 0.12 98 1010.3
20260509232703 56 102 0.0 0.0 0.00 0.12 0.12 97 1010.2
20260509232202 56 96 0.0 0.0 0.00 0.12 0.12 97 1010.2
20260509230202 56 121 0.0 0.0 0.00 0.12 0.12 97 1010.2
20260509225203 56 146 0.0 0.0 0.00 0.12 0.12 96 1010.2
20260509224702 56 146 0.0 0.0 0.00 0.12 0.12 96 1010.2
20260509224203 56 161 0.0 0.0 0.06 0.12 0.12 96 1010.2
20260509223702 57 147 0.0 0.0 0.11 0.12 0.12 96 1010.2
20260509223202 57 104 0.0 1.7 0.11 0.12 0.12 96 1010.2
20260509222203 57 82 0.0 4.3 0.11 0.12 0.12 95 1010.5
20260509221703 57 110 0.0 4.3 0.11 0.12 0.12 95 1010.5
20260509221202 58 149 0.0 0.0 0.11 0.12 0.12 95 1010.5
20260509215703 58 133 0.0 0.0 0.11 0.12 0.12 94 1010.8
20260509214702 59 294 0.0 1.7 0.11 0.12 0.12 92 1010.8
20260509213703 60 115 0.0 0.0 0.00 0.01 0.01 83 1011.5
20260509213202 60 105 0.0 0.0 0.00 0.01 0.01 83 1011.5
20260509212702 60 88 0.0 1.7 0.00 0.01 0.01 83 1011.2
20260509211702 60 27 1.7 4.3 0.00 0.01 0.01 82 1010.8
20260509210703 61 146 0.9 4.3 0.00 0.01 0.01 82 1010.5
20260509205703 61 5 0.9 1.7 0.00 0.01 0.01 80 1010.5
20260509205202 61 354 0.0 1.7 0.00 0.01 0.01 80 1010.2
20260509204704 61 135 0.0 1.7 0.00 0.01 0.01 80 1010.2